CW5834 Weather Reports


time (UTC)temp
C
wind
direction
speed
KPH
gust
KPH
rain 1hr
cm
rain 24hr
cm
rain mn
cm
humidity
%
barometer
mb
20260901032036 21 0.0 1.6 0.00 0.00 0.00 90 1021.6
20260901031056 21 0.0 0.0 0.00 0.00 0.00 91 1021.8
20260901030016 21 0.0 1.6 0.00 0.00 0.00 91 1021.6
20260901025018 21 0.0 1.6 0.00 0.00 0.00 91 1021.7
20260901024016 21 0.0 0.0 0.00 0.00 0.00 91 1021.6
20260901023016 21 0.0 3.2 0.00 0.00 0.00 91 1021.5
20260901022016 22 0.0 0.0 0.00 0.00 0.00 91 1021.7
20260901021016 22 0.0 0.0 0.00 0.00 0.00 90 1021.5
20260901020036 22 0.0 0.0 0.00 0.00 0.00 90 1021.5
20260901015036 22 0.0 3.2 0.00 0.00 0.00 89 1021.5
20260901014016 22 0.0 3.2 0.00 0.00 0.00 89 1021.3
20260901013015 22 0.0 1.6 0.00 0.00 0.00 89 1021.1
20260901012016 23 0.0 0.0 0.00 0.00 0.00 88 1021.2
20260901011015 23 0.0 0.0 0.00 0.00 0.00 87 1021.0
20260901010036 23 0.0 3.2 0.00 0.00 0.00 86 1020.8
20260901005015 23 0.0 0.0 0.00 0.00 0.00 85 1020.8
20260901004016 24 0.0 3.2 0.00 0.00 0.00 85 1020.8
20260901003015 24 0.0 1.6 0.00 0.00 0.00 84 1020.8
20260901002015 25 0.0 0.0 0.00 0.00 0.00 80 1020.6
20260901001015 25 0.0 0.0 0.00 0.00 0.00 79 1020.7
20260901000036 25 0.0 3.2 0.00 0.00 0.00 78 1020.5
20260831235016 26 338 1.6 1.6 0.00 0.00 0.00 75 1020.5
20260831234015 26 0.0 1.6 0.00 0.00 0.00 74 1020.5
20260831233015 27 0.0 3.2 0.00 0.00 0.00 75 1020.4
20260831232018 27 315 1.6 1.6 0.00 0.00 0.00 73 1020.8
20260831231015 27 315 1.6 1.6 0.00 0.00 0.00 70 1020.9
20260831230037 28 315 1.6 1.6 0.00 0.00 0.00 69 1020.8
20260831225015 29 315 1.6 1.6 0.00 0.00 0.00 67 1021.0
20260831224017 30 338 1.6 1.6 0.00 0.00 0.00 64 1021.0
20260831223017 31 315 1.6 1.6 0.00 0.00 0.00 64 1021.4
20260831222017 31 0 1.6 3.2 0.00 0.00 0.00 61 1021.4
20260831221017 31 23 1.6 1.6 0.00 0.00 0.00 59 1021.3
20260831220037 31 0 1.6 3.2 0.00 0.00 0.00 61 1021.3
20260831215037 31 0 3.2 6.4 0.00 0.00 0.00 60 1021.3
20260831214017 31 0 3.2 4.8 0.00 0.00 0.00 59 1021.5
20260831213017 31 338 3.2 6.4 0.00 0.00 0.00 59 1021.4
20260831212017 31 338 4.8 11.3 0.00 0.00 0.00 58 1021.4
20260831211017 31 315 1.6 6.4 0.00 0.00 0.00 56 1021.4
20260831210037 31 0 3.2 4.8 0.00 0.00 0.00 58 1021.5
20260831205017 31 315 3.2 6.4 0.00 0.00 0.00 57 1021.6
20260831204057 31 315 3.2 6.4 0.00 0.00 0.00 56 1021.7
20260831203017 31 293 3.2 6.4 0.00 0.00 0.00 58 1021.9
20260831202017 31 23 1.6 4.8 0.00 0.00 0.00 59 1021.9
20260831201017 31 315 4.8 12.9 0.00 0.00 0.00 60 1022.1
20260831200017 31 315 4.8 11.3 0.00 0.00 0.00 61 1022.2
20260831195017 31 338 4.8 8.0 0.00 0.00 0.00 62 1022.3
20260831194027 31 315 9.7 16.1 0.00 0.00 0.00 60 1022.3
20260831193017 32 158 4.8 12.9 0.00 0.00 0.00 55 1022.4
20260831192017 32 315 4.8 9.7 0.00 0.00 0.00 53 1022.5
20260831191017 31 225 1.6 4.8 0.00 0.00 0.00 59 1022.7
20260831190017 31 0 3.2 6.4 0.00 0.00 0.00 60 1022.6
20260831185017 31 270 4.8 8.0 0.00 0.00 0.00 59 1022.8
20260831184017 31 23 3.2 6.4 0.00 0.00 0.00 58 1022.9
20260831183017 32 0 3.2 6.4 0.00 0.00 0.00 61 1023.1
20260831182037 31 113 3.2 6.4 0.00 0.00 0.00 56 1023.0
20260831181017 31 158 3.2 6.4 0.00 0.00 0.00 60 1023.2
20260831180017 31 135 1.6 4.8 0.00 0.00 0.00 58 1023.2
20260831175037 31 338 1.6 4.8 0.00 0.00 0.00 63 1023.3
20260831174017 30 203 1.6 4.8 0.00 0.00 0.00 59 1023.2
20260831173017 30 203 3.2 6.4 0.00 0.00 0.00 63 1023.4
20260831172017 30 68 3.2 8.0 0.00 0.00 0.00 69 1023.3
20260831171037 28 338 3.2 8.0 0.00 0.00 0.00 69 1023.4
20260831170017 28 0 3.2 4.8 0.00 0.00 0.00 71 1023.5
20260831165017 30 315 3.2 8.0 0.00 0.00 0.00 66 1023.7
20260831164017 29 203 3.2 4.8 0.00 0.00 0.00 70 1023.6
20260831163016 29 225 3.2 6.4 0.00 0.00 0.00 69 1023.7
20260831162016 29 270 3.2 9.7 0.00 0.00 0.00 68 1023.8
20260831161016 29 203 4.8 9.7 0.00 0.00 0.00 71 1023.8
20260831160016 28 180 6.4 14.5 0.00 0.00 0.00 69 1023.8
20260831155016 28 203 3.2 8.0 0.00 0.00 0.00 71 1023.6
20260831154017 28 225 3.2 6.4 0.00 0.00 0.00 70 1023.8
20260831153016 28 203 4.8 9.7 0.00 0.00 0.00 69 1023.9
20260831152016 28 203 4.8 8.0 0.00 0.00 0.00 71 1023.8
20260831151016 28 180 3.2 9.7 0.00 0.00 0.00 71 1023.7
20260831150016 27 225 4.8 11.3 0.00 0.00 0.00 71 1023.7
20260831145016 27 203 4.8 9.7 0.00 0.00 0.00 70 1023.7
20260831144017 27 203 4.8 11.3 0.00 0.00 0.00 75 1023.6
20260831143016 27 180 3.2 6.4 0.00 0.00 0.00 74 1023.4
20260831142016 27 203 3.2 6.4 0.00 0.00 0.00 76 1023.6
20260831141016 26 203 3.2 4.8 0.00 0.00 0.00 76 1023.5
20260831140016 26 180 1.6 6.4 0.00 0.00 0.00 79 1023.4
20260831135016 26 180 1.6 6.4 0.00 0.00 0.00 77 1023.7
20260831134016 26 0.0 3.2 0.00 0.00 0.00 80 1023.7
20260831133056 25 158 1.6 3.2 0.00 0.00 0.00 80 1023.5
20260831132016 25 0.0 3.2 0.00 0.00 0.00 84 1023.7
20260831131036 24 0.0 1.6 0.00 0.00 0.00 85 1023.5
20260831130036 23 0.0 3.2 0.00 0.00 0.00 89 1023.4
20260831125016 22 0.0 0.0 0.00 0.00 0.00 91 1023.3
20260831124016 21 0.0 3.2 0.00 0.00 0.00 92 1023.3
20260831123036 21 0.0 3.2 0.00 0.00 0.00 92 1023.1
20260831122016 21 0.0 3.2 0.00 0.00 0.00 93 1023.2
20260831121016 20 0.0 3.2 0.00 0.00 0.00 95 1023.0
20260831120016 20 0.0 0.0 0.00 0.00 0.00 96 1022.9
20260831115016 19 0.0 3.2 0.00 0.00 0.00 95 1022.8
20260831114016 18 0.0 1.6 0.00 0.00 0.00 95 1022.7
20260831113016 18 0.0 3.2 0.00 0.00 0.00 95 1022.6
20260831112016 18 0.0 3.2 0.00 0.00 0.00 95 1022.7
20260831111016 18 0.0 0.0 0.00 0.00 0.00 95 1022.6
20260831110018 18 0.0 0.0 0.00 0.00 0.00 95 1022.6
20260831105036 19 0.0 3.2 0.00 0.00 0.00 95 1022.7
20260831104016 18 0 1.6 3.2 0.00 0.00 0.00 95 1022.5
20260831103016 18 0.0 3.2 0.00 0.00 0.00 95 1022.4
20260831102016 18 0.0 1.6 0.00 0.00 0.00 95 1022.5
20260831101016 18 0.0 3.2 0.00 0.00 0.00 95 1022.4
20260831100016 18 0.0 3.2 0.00 0.00 0.00 94 1022.4
20260831095016 18 0.0 1.6 0.00 0.00 0.00 94 1022.1
20260831094036 18 0.0 3.2 0.00 0.00 0.00 95 1022.0
20260831093016 18 0.0 3.2 0.00 0.00 0.00 94 1022.0
20260831092016 18 0.0 0.0 0.00 0.00 0.00 94 1022.1
20260831091016 18 0.0 1.6 0.00 0.00 0.00 94 1022.0
20260831090015 18 0.0 3.2 0.00 0.00 0.00 94 1022.1
20260831085015 18 0.0 3.2 0.00 0.00 0.00 94 1022.0
20260831084016 18 0.0 3.2 0.00 0.00 0.00 94 1021.9
20260831083015 18 0.0 3.2 0.00 0.00 0.00 94 1021.8
20260831082015 18 0.0 3.2 0.00 0.00 0.00 94 1021.9
20260831081016 19 0.0 3.2 0.00 0.00 0.00 94 1021.9
20260831080035 18 23 1.6 1.6 0.00 0.00 0.00 94 1021.9
20260831075039 18 0.0 3.2 0.00 0.00 0.00 93 1022.0
20260831074018 19 0 1.6 3.2 0.00 0.00 0.00 93 1022.0
20260831073019 19 0.0 0.0 0.00 0.00 0.00 93 1021.8
20260831072015 19 0.0 1.6 0.00 0.00 0.00 93 1021.8
20260831071017 19 0.0 3.2 0.00 0.00 0.00 93 1021.8
20260831070015 19 0 1.6 1.6 0.00 0.00 0.00 92 1021.8
20260831065017 19 0.0 0.0 0.00 0.00 0.00 92 1022.0
20260831064017 19 0.0 1.6 0.00 0.00 0.00 92 1021.9
20260831063023 19 0.0 0.0 0.00 0.00 0.00 91 1021.9
20260831062037 20 0.0 0.0 0.00 0.00 0.00 91 1021.8
20260831061017 20 0.0 1.6 0.00 0.00 0.00 92 1022.0
20260831060017 20 0.0 1.6 0.00 0.00 0.00 91 1022.0
20260831055017 20 0 1.6 1.6 0.00 0.00 0.00 91 1022.0
20260831054017 20 0.0 1.6 0.00 0.00 0.00 91 1022.1
20260831053017 20 0.0 0.0 0.00 0.00 0.00 90 1022.1
20260831052017 20 0.0 3.2 0.00 0.00 0.00 90 1022.2
20260831051017 20 0.0 1.6 0.00 0.00 0.00 90 1022.1
20260831050017 20 0.0 1.6 0.00 0.00 0.00 90 1022.0
20260831045017 20 0.0 3.2 0.00 0.00 0.00 90 1022.0
20260831044018 20 0.0 3.2 0.00 0.00 0.00 90 1022.0
20260831043017 20 0.0 3.2 0.00 0.00 0.00 90 1022.0
20260831042037 20 0.0 0.0 0.00 0.00 0.00 90 1021.8
20260831041017 20 0.0 3.2 0.00 0.00 0.00 90 1021.9
20260831040017 20 0 1.6 1.6 0.00 0.00 0.00 90 1021.9
20260831035016 20 0.0 0.0 0.00 0.00 0.00 90 1021.9
20260831034016 20 0.0 0.0 0.00 0.00 0.00 90 1021.8
20260831033018 20 0.0 0.0 0.00 0.00 0.00 90 1021.7